IBE592 LFPG-LEMD

Flight info

Callsign IBE592
Flight time N/A
Altitude 33000
Route AGOPA6E AGOPA DCT ARKIP DCT ARNAV DCT LMG DCT UVELI DCT OSMOB DCT ARVID DCT PPN DCT NOLSA DCT ALEPO DCT VASUM DCT BANEV BANEV4D
Aircraft A320/M-SDE3FGHIRWY/LB1

Departure

Time 2026-05-06 11:24
Airport Charles de Gaulle International Airport (LFPG)

Arrival

Time N/A
Airport Adolfo Suárez Madrid–Barajas Airport (LEMD)
Time Latitude Longitude Altitude Speed Heading
2026-05-06 10:55 49.00152 2.58210 355 ft 0 kts 20°
2026-05-06 11:12 49.00136 2.58201 360 ft 2 kts 20°
2026-05-06 11:12 49.00121 2.58193 358 ft 2 kts
2026-05-06 11:13 49.00105 2.58193 356 ft 2 kts 359°
2026-05-06 11:13 49.00089 2.58193 354 ft 2 kts 25°
2026-05-06 11:13 49.00083 2.58173 364 ft 3 kts 94°
2026-05-06 11:13 49.00083 2.58145 357 ft 3 kts 86°
2026-05-06 11:14 49.00083 2.58141 358 ft 0 kts 86°
2026-05-06 11:17 49.00084 2.58163 364 ft 2 kts 85°
2026-05-06 11:18 49.00087 2.58217 362 ft 6 kts 85°
2026-05-06 11:18 49.00090 2.58272 363 ft 5 kts 89°
2026-05-06 11:18 49.00074 2.58313 364 ft 6 kts 136°
2026-05-06 11:18 49.00029 2.58317 357 ft 7 kts 199°
2026-05-06 11:19 48.99985 2.58295 354 ft 6 kts 197°
2026-05-06 11:19 48.99935 2.58308 358 ft 12 kts 134°
2026-05-06 11:19 48.99928 2.58442 354 ft 13 kts 85°
2026-05-06 11:19 48.99935 2.58568 354 ft 11 kts 85°
2026-05-06 11:20 48.99942 2.58703 354 ft 18 kts 85°
2026-05-06 11:20 48.99952 2.58908 356 ft 20 kts 85°
2026-05-06 11:20 48.99964 2.59126 354 ft 21 kts 86°
2026-05-06 11:20 48.99977 2.59361 354 ft 23 kts 85°
2026-05-06 11:21 48.99987 2.59569 361 ft 12 kts 91°
2026-05-06 11:21 48.99947 2.59651 357 ft 8 kts 160°
2026-05-06 11:21 48.99899 2.59662 360 ft 0 kts 177°
2026-05-06 11:22 48.99897 2.59662 359 ft 1 kts 177°
2026-05-06 11:22 48.99831 2.59668 353 ft 15 kts 176°
2026-05-06 11:23 48.99800 2.59607 359 ft 7 kts 265°
2026-05-06 11:23 48.99799 2.59595 356 ft 0 kts 265°
2026-05-06 11:23 48.99797 2.59569 359 ft 14 kts 265°
2026-05-06 11:23 48.99770 2.59014 356 ft 89 kts 265°
2026-05-06 11:24 48.99704 2.57770 358 ft 146 kts 265°
2026-05-06 11:24 48.99611 2.56060 671 ft 166 kts 268°
2026-05-06 11:24 48.99524 2.54304 1412 ft 168 kts 270°
2026-05-06 11:24 48.99427 2.52484 1961 ft 182 kts 269°
2026-05-06 11:25 48.99327 2.50451 2316 ft 203 kts 270°
2026-05-06 11:25 48.99215 2.48183 2614 ft 228 kts 269°
2026-05-06 11:25 48.99081 2.45650 3079 ft 252 kts 269°
2026-05-06 11:25 48.98932 2.42925 3841 ft 260 kts 269°
2026-05-06 11:26 48.98778 2.40194 4759 ft 265 kts 269°
2026-05-06 11:26 48.98618 2.37372 5652 ft 270 kts 269°
2026-05-06 11:26 48.98453 2.34522 6626 ft 272 kts 269°
2026-05-06 11:26 48.98285 2.31637 7558 ft 275 kts 268°
2026-05-06 11:27 48.98118 2.28734 8541 ft 276 kts 266°
2026-05-06 11:27 48.97952 2.25827 9665 ft 275 kts 265°
2026-05-06 11:27 48.97787 2.22888 10391 ft 287 kts 265°
2026-05-06 11:27 48.97608 2.19746 10700 ft 308 kts 265°
2026-05-06 11:28 48.97415 2.16438 11275 ft 319 kts 265°
2026-05-06 11:28 48.97221 2.13088 11989 ft 324 kts 265°
2026-05-06 11:28 48.97022 2.09655 12781 ft 327 kts 265°
2026-05-06 11:28 48.96591 2.06235 13519 ft 333 kts 250°
2026-05-06 11:29 48.95418 2.03188 14211 ft 338 kts 230°
2026-05-06 11:29 48.93587 2.00931 14845 ft 344 kts 208°
2026-05-06 11:29 48.91310 1.99793 15476 ft 349 kts 187°
2026-05-06 11:29 48.88867 1.99675 16164 ft 353 kts 181°
2026-05-06 11:30 48.86403 1.99656 16848 ft 356 kts 180°
2026-05-06 11:30 48.83949 1.99637 17518 ft 359 kts 180°
2026-05-06 11:30 48.81442 1.99614 18175 ft 362 kts 180°
2026-05-06 11:30 48.78912 1.99586 18742 ft 366 kts 180°
2026-05-06 11:31 48.76353 1.99554 19301 ft 370 kts 180°
2026-05-06 11:31 48.73770 1.99521 19864 ft 373 kts 180°
2026-05-06 11:31 48.71161 1.99485 20420 ft 377 kts 180°
2026-05-06 11:31 48.68526 1.99451 20975 ft 381 kts 180°
2026-05-06 11:32 48.65864 1.99420 21518 ft 384 kts 180°
2026-05-06 11:32 48.63178 1.99415 22079 ft 388 kts 179°
2026-05-06 11:32 48.60517 1.99467 22716 ft 388 kts 179°
2026-05-06 11:32 48.57810 1.99557 23344 ft 390 kts 178°
2026-05-06 11:33 48.55081 1.99659 23869 ft 393 kts 178°
2026-05-06 11:33 48.52335 1.99756 24337 ft 397 kts 178°
2026-05-06 11:33 48.49564 1.99843 24798 ft 400 kts 178°
2026-05-06 11:33 48.46771 1.99923 25241 ft 403 kts 178°
2026-05-06 11:34 48.43954 1.99996 25669 ft 406 kts 178°
2026-05-06 11:34 48.41116 2.00066 26119 ft 409 kts 178°
2026-05-06 11:34 48.38276 2.00135 26691 ft 409 kts 178°
2026-05-06 11:34 48.35460 2.00202 27137 ft 411 kts 178°
2026-05-06 11:35 48.32589 2.00273 27511 ft 414 kts 178°
2026-05-06 11:35 48.29693 2.00348 27874 ft 417 kts 177°
2026-05-06 11:35 48.26781 2.00427 28223 ft 420 kts 177°
2026-05-06 11:35 48.23843 2.00512 28567 ft 424 kts 178°
2026-05-06 11:36 48.20887 2.00600 28906 ft 427 kts 178°
2026-05-06 11:36 48.17913 2.00692 29334 ft 427 kts 178°
2026-05-06 11:36 48.14939 2.00780 29719 ft 429 kts 178°
2026-05-06 11:36 48.11987 2.00865 30038 ft 431 kts 178°
2026-05-06 11:37 48.08981 2.00951 30308 ft 434 kts 178°
2026-05-06 11:37 48.05951 2.01054 30531 ft 437 kts 177°
2026-05-06 11:37 48.02904 2.01215 30763 ft 440 kts 177°
2026-05-06 11:37 47.99838 2.01413 31009 ft 442 kts 176°
2026-05-06 11:38 47.96763 2.01623 31277 ft 443 kts 176°
2026-05-06 11:38 47.93680 2.01834 31559 ft 444 kts 177°
2026-05-06 11:38 47.90600 2.02035 31906 ft 443 kts 177°
2026-05-06 11:38 47.87558 2.02226 32237 ft 443 kts 176°
2026-05-06 11:39 47.84477 2.02411 32571 ft 443 kts 177°
2026-05-06 11:39 47.81400 2.02589 32872 ft 443 kts 177°
2026-05-06 11:39 47.78341 2.02766 32920 ft 433 kts 177°
2026-05-06 11:40 47.72414 2.03106 32920 ft 422 kts 177°
2026-05-06 11:40 47.66595 2.03425 32921 ft 421 kts 179°
2026-05-06 11:41 47.60823 2.02145 32923 ft 421 kts 198°
2026-05-06 11:41 47.55351 1.99009 32926 ft 422 kts 201°
2026-05-06 11:42 47.49878 1.95836 32922 ft 422 kts 201°
2026-05-06 11:42 47.44441 1.92694 32925 ft 422 kts 200°
2026-05-06 11:43 47.38969 1.89546 32922 ft 422 kts 201°
2026-05-06 11:43 47.33502 1.86391 32913 ft 422 kts 201°
2026-05-06 11:44 47.25298 1.81685 32907 ft 422 kts 201°
2026-05-06 11:44 47.19859 1.78574 32909 ft 422 kts 201°
2026-05-06 11:45 47.14383 1.75476 32913 ft 422 kts 200°
2026-05-06 11:45 47.08905 1.72399 32912 ft 421 kts 200°
2026-05-06 11:46 47.03465 1.69349 32910 ft 421 kts 200°
2026-05-06 11:46 46.97996 1.66273 32907 ft 421 kts 201°
2026-05-06 11:47 46.92523 1.63210 32908 ft 421 kts 201°
2026-05-06 11:47 46.87038 1.60152 32894 ft 422 kts 200°
2026-05-06 11:48 46.81579 1.57109 32887 ft 423 kts 200°
2026-05-06 11:48 46.76073 1.54048 32894 ft 424 kts 201°
2026-05-06 11:49 46.70555 1.50991 32898 ft 424 kts 200°
2026-05-06 11:49 46.65036 1.47944 32902 ft 424 kts 200°
2026-05-06 11:50 46.59550 1.44916 32912 ft 425 kts 201°
2026-05-06 11:50 46.54025 1.41870 32912 ft 424 kts 200°
2026-05-06 11:51 46.48507 1.38836 32916 ft 424 kts 200°
2026-05-06 11:51 46.43927 1.36323 32917 ft 423 kts 200°
2026-05-06 11:52 46.38414 1.33302 32914 ft 423 kts 200°
2026-05-06 11:52 46.32021 1.29807 32916 ft 422 kts 201°
2026-05-06 11:53 46.26523 1.26809 32914 ft 422 kts 201°
2026-05-06 11:53 46.23802 1.25332 32910 ft 411 kts 200°
2026-05-06 11:53 46.22051 1.24382 32915 ft 401 kts 200°
2026-05-06 11:54 46.16914 1.21591 32923 ft 401 kts 201°
2026-05-06 11:54 46.13397 1.19683 32922 ft 415 kts 201°
2026-05-06 11:54 46.10664 1.18202 32920 ft 424 kts 200°
2026-05-06 11:55 46.05996 1.15679 32921 ft 439 kts 200°
2026-05-06 11:55 46.00229 1.12570 32914 ft 436 kts 201°
2026-05-06 11:56 45.93636 1.08992 32923 ft 440 kts 201°
2026-05-06 11:56 45.88786 1.06406 32919 ft 453 kts 201°
2026-05-06 11:57 45.82828 1.03091 32917 ft 464 kts 207°
2026-05-06 11:57 45.77581 0.97765 32920 ft 470 kts 220°
2026-05-06 11:58 45.72558 0.91729 32920 ft 473 kts 220°
2026-05-06 11:58 45.67494 0.85675 32918 ft 475 kts 221°
2026-05-06 11:59 45.62432 0.79642 32917 ft 478 kts 220°
2026-05-06 11:59 45.57435 0.73707 32910 ft 448 kts 221°
2026-05-06 12:00 45.55085 0.70924 32912 ft 431 kts 221°
2026-05-06 12:00 45.52800 0.68216 32920 ft 424 kts 221°
2026-05-06 12:00 45.48284 0.62862 32921 ft 421 kts 221°
2026-05-06 12:01 45.43782 0.57542 32920 ft 420 kts 221°
2026-05-06 12:01 45.39309 0.52272 32918 ft 420 kts 221°
2026-05-06 12:02 45.34811 0.46975 32917 ft 419 kts 221°
2026-05-06 12:02 45.30323 0.41711 32913 ft 418 kts 221°
2026-05-06 12:03 45.25835 0.36462 32891 ft 418 kts 221°
2026-05-06 12:03 45.21370 0.31235 32889 ft 419 kts 221°
2026-05-06 12:04 45.16870 0.25981 32887 ft 419 kts 221°
2026-05-06 12:04 45.12367 0.20735 32898 ft 419 kts 221°
2026-05-06 12:05 45.07863 0.15507 32901 ft 418 kts 221°
2026-05-06 12:05 45.03390 0.10328 32905 ft 418 kts 221°
2026-05-06 12:06 44.98890 0.05116 32904 ft 418 kts 221°
2026-05-06 12:06 44.94398 -0.00072 32921 ft 417 kts 221°
2026-05-06 12:07 44.89903 -0.05248 32910 ft 417 kts 221°
2026-05-06 12:07 44.85440 -0.10386 32903 ft 417 kts 221°
2026-05-06 12:08 44.80935 -0.15543 32904 ft 417 kts 221°
2026-05-06 12:08 44.76430 -0.20694 32914 ft 417 kts 221°
2026-05-06 12:09 44.71923 -0.25844 32913 ft 417 kts 221°
2026-05-06 12:09 44.67441 -0.30954 32919 ft 418 kts 221°
2026-05-06 12:10 44.62627 -0.35521 32925 ft 421 kts 210°
2026-05-06 12:10 44.57440 -0.39328 32926 ft 421 kts 210°
2026-05-06 12:11 44.52261 -0.43137 32926 ft 420 kts 210°
2026-05-06 12:11 44.47120 -0.46908 32931 ft 420 kts 210°
2026-05-06 12:12 44.41948 -0.50696 32923 ft 420 kts 210°
2026-05-06 12:12 44.36776 -0.54472 32930 ft 419 kts 210°
2026-05-06 12:13 44.31608 -0.58239 32934 ft 419 kts 210°
2026-05-06 12:13 44.26474 -0.61969 32944 ft 419 kts 210°
2026-05-06 12:14 44.21307 -0.65714 32945 ft 418 kts 210°
2026-05-06 12:14 44.16146 -0.69460 32948 ft 418 kts 210°
2026-05-06 12:15 44.10989 -0.73199 32951 ft 418 kts 210°
2026-05-06 12:15 44.05865 -0.76904 32950 ft 418 kts 210°
2026-05-06 12:16 44.00701 -0.80622 32938 ft 418 kts 210°
2026-05-06 12:16 43.95526 -0.84336 32950 ft 418 kts 210°
2026-05-06 12:17 43.90356 -0.88041 32959 ft 418 kts 210°
2026-05-06 12:17 43.85184 -0.91745 32968 ft 418 kts 210°
2026-05-06 12:18 43.80049 -0.95414 32982 ft 417 kts 210°
2026-05-06 12:18 43.74896 -0.99087 32998 ft 416 kts 210°
2026-05-06 12:19 43.69760 -1.02744 33001 ft 415 kts 210°
2026-05-06 12:19 43.64632 -1.06397 32998 ft 414 kts 210°
2026-05-06 12:20 43.59548 -1.10013 32990 ft 413 kts 210°
2026-05-06 12:20 43.54444 -1.13628 33009 ft 412 kts 210°
2026-05-06 12:21 43.49342 -1.17230 32999 ft 412 kts 210°
2026-05-06 12:21 43.44228 -1.20830 33002 ft 413 kts 209°
2026-05-06 12:22 43.39103 -1.24434 33001 ft 413 kts 210°
2026-05-06 12:22 43.34029 -1.28008 33006 ft 412 kts 210°
2026-05-06 12:23 43.28919 -1.31593 33009 ft 412 kts 210°
2026-05-06 12:23 43.23814 -1.35162 33010 ft 412 kts 210°
2026-05-06 12:24 43.18744 -1.38697 33009 ft 411 kts 210°
2026-05-06 12:24 43.13654 -1.42253 33016 ft 411 kts 210°
2026-05-06 12:25 43.08563 -1.45801 33012 ft 410 kts 210°
2026-05-06 12:25 43.03480 -1.49338 33014 ft 410 kts 210°
2026-05-06 12:26 42.98436 -1.52843 33017 ft 408 kts 210°
2026-05-06 12:26 42.93383 -1.56353 33022 ft 407 kts 210°
2026-05-06 12:27 42.88334 -1.59855 33015 ft 407 kts 210°
2026-05-06 12:27 42.83287 -1.63345 33013 ft 407 kts 210°
2026-05-06 12:28 42.78245 -1.66830 33019 ft 406 kts 210°
2026-05-06 12:28 42.73236 -1.70288 33010 ft 406 kts 210°
2026-05-06 12:29 42.68177 -1.73723 33006 ft 406 kts 210°
2026-05-06 12:29 42.63108 -1.77123 33003 ft 406 kts 210°
2026-05-06 12:30 42.58039 -1.80521 33000 ft 405 kts 210°
2026-05-06 12:30 42.53026 -1.83877 33023 ft 403 kts 210°
2026-05-06 12:31 42.48000 -1.87231 33017 ft 402 kts 210°
2026-05-06 12:31 42.42989 -1.90573 33010 ft 401 kts 210°
2026-05-06 12:32 42.37981 -1.93919 32967 ft 401 kts 211°
2026-05-06 12:32 42.33017 -1.97227 32985 ft 400 kts 211°
2026-05-06 12:33 42.28029 -2.00536 32994 ft 399 kts 211°
2026-05-06 12:33 42.23053 -2.03837 32987 ft 398 kts 211°
2026-05-06 12:34 42.18079 -2.07129 32984 ft 398 kts 211°